Hourly Weather Roundup
Issued by NWS Central Illinois

Home | Current Version | Previous Version | Text Only | Print | Product List | Glossary On
Versions: 1 2 3 4 5 6 7 8 9 10 11 12 13 14 15 16 17 18 19 20 21 22 23 24 25 26 27 28 29 30 31 32 33 34 35 36 37 38 39 40 41 42 43 44 45 46 47 48 49 50
000
NZUS43 KILX 261410
HWRILX

AREA WEATHER ROUNDUP
NATIONAL WEATHER SERVICE, LINCOLN IL
900 AM CDT MON SEP 26 2016


CITY           SKY/WX    TMP DP  RH WIND       PRES   REMARKS
BLOOMINGTON    CLOUDY    60  50  69 W10       30.11S
CHAMPAIGN      CLOUDY    59  54  83 W9        30.10S
DANVILLE       CLOUDY    58  55  90 W9        30.06R
DECATUR        CLOUDY    60  51  72 NW13      30.12S
EFFINGHAM      CLOUDY    60  60 100 W8        30.14S
FLORA          PTSUNNY   61  58  90 NW7       30.15R
GALESBURG      SUNNY     59  45  59 W14       30.11S
JACKSONVILLE   SUNNY     60  52  73 W7        30.15S
LACON          SUNNY     61  45  56 W9        30.08R
LAWRENCEVILLE  MOSUNNY   61  57  87 W13       30.13R
LITCHFIELD     CLOUDY    59  52  77 NW8       30.15S
$$


CITY           SKY/WX    TMP DP  RH WIND       PRES   REMARKS
LINCOLN        SUNNY     63  52  67 W5        30.12S
MACOMB         SUNNY     59  46  62 W12       30.15F
MATTOON        CLOUDY    59  54  83 W12       30.11S
MT CARMEL AP   PTSUNNY   60  57  91 NW7       30.12S
OLNEY-NOBLE AP PTSUNNY   59  59 100 W6        30.14R
PARIS          CLOUDY    59  57  94 W6        30.11R
PEORIA         SUNNY     61  47  59 W7        30.10S
PONTIAC        SUNNY     62  51  69 W12       30.08S
RANTOUL        CLOUDY    60  56  86 W10       30.09R
ROBINSON       CLOUDY    59  57  95 W9G17     30.12S
SPRINGFIELD    SUNNY     62  54  74 W7        30.14S
TAYLORVILLE    CLOUDY    58  54  84 W7        30.14S
$$

...REGIONAL REPORTS...


CITY           SKY/WX    TMP DP  RH WIND       PRES   REMARKS
CHICAGO O`HARE MOSUNNY   60  47  61 W14       29.99S
KANKAKEE       CLOUDY    58  52  81 W9        30.06S
MOLINE         SUNNY     59  43  55 W13       30.08S
MOUNT STERLING SUNNY     60  47  63 W8        30.15S
MOUNT VERNON   CLOUDY    61  54  77 CALM      30.16R
PITTSFIELD     SUNNY     61  50  67 W6        30.18R
QUINCY         SUNNY     59  48  67 W9        30.16S
ROCKFORD       SUNNY     58  45  62 W15       30.03S
$$


CITY           SKY/WX    TMP DP  RH WIND       PRES   REMARKS
BURLINGTON     SUNNY     58  45  62 W7        30.13S
CEDAR RAPIDS   SUNNY     56  44  64 W15G22    30.09S
DES MOINES     SUNNY     57  41  55 W10       30.16S
KIRKSVILLE     SUNNY     55  45  68 W6        30.20S
OTTUMWA        SUNNY     55  42  61 W9        30.16R
ST LOUIS       CLOUDY    62  55  77 NW7       30.17S
$$


CITY           SKY/WX    TMP DP  RH WIND       PRES   REMARKS
TERRE HAUTE    LGT RAIN  60  56  86 W8        30.10R
EVANSVILLE     CLOUDY    63  58  83 NW7       30.14R
INDIANAPOLIS   CLOUDY    60  56  86 NW8       30.04F
LAFAYETTE      CLOUDY    58  57  97 W10       30.06R
MADISON        SUNNY     55  44  66 VRB5      29.95S
MILWAUKEE      MOSUNNY   60  45  57 W14G25    29.93F
$$





USA.gov is the U.S. government's official web portal to all federal, state and local government web resources and services.